Wind_Speed
19 17 16 14 13 12 11 11 11 11 11 10 9 8 8 7 7 7 7 7 7 7 7 7 7 7 7 7 7 7 6 6 6 6 7 7 7 8 8 9 9 10 10
22 21 19 17 15 14 14 14 13 13 13 13 12 11 10 10 9 9 9 9 9 8 8 8 8 8 9 9 9 8 8 9 9 8 8 8 8 9 9 10 11 11 12
25 24 22 21 18 16 16 16 15 15 15 15 14 13 13 12 12 12 11 11 11 11 10 10 10 10 10 10 10 10 10 11 11 11 11 11 11 11 11 12 12 13 13
29 27 26 24 21 20 19 18 18 17 17 17 16 16 16 15 15 15 14 14 14 13 13 13 12 12 12 12 12 12 12 12 12 12 13 13 13 13 13 14 14 14 15
32 31 30 27 24 23 22 21 20 19 19 18 18 18 18 18 18 18 17 17 16 16 16 16 15 15 15 14 14 14 15 14 14 14 15 15 15 16 16 16 16 16 17
33 32 31 29 27 26 25 24 22 22 21 20 20 20 20 21 21 21 21 20 20 19 19 19 18 18 17 17 17 17 17 17 17 17 17 17 17 17 18 18 18 18 19
33 32 32 30 28 28 26 24 24 23 24 23 23 22 22 22 23 23 23 23 23 22 22 22 21 21 20 20 20 20 20 19 19 19 19 19 19 19 19 20 20 20 20
35 33 32 29 28 27 27 26 25 25 25 25 24 23 23 24 24 25 25 25 25 25 25 25 24 24 23 23 23 23 22 22 22 22 21 21 21 21 21 22 22 22 22
33 31 30 29 28 27 26 27 28 26 25 26 26 26 26 26 26 26 27 27 27 27 27 27 27 26 26 25 25 25 25 24 24 24 23 23 23 23 23 23 23 23 23
36 34 32 31 31 29 27 27 27 26 26 26 26 27 28 28 28 28 28 29 28 29 29 29 29 28 28 28 27 27 27 26 26 26 25 25 25 24 24 24 24 24 24
37 36 34 31 31 30 28 27 25 25 26 26 26 27 27 28 29 30 30 30 30 30 30 31 31 31 31 30 30 29 28 28 28 27 26 26 26 25 25 25 25 25 25
36 35 34 32 31 31 30 29 28 27 27 27 27 28 29 29 30 31 32 33 32 31 31 31 32 32 32 32 32 31 31 30 29 28 28 27 27 27 26 26 26 26 26
33 33 32 32 32 31 30 30 29 29 29 29 29 30 30 32 32 34 35 35 35 35 34 34 34 34 34 33 32 32 32 31 31 30 29 29 28 28 28 28 28 28 27
31 31 32 31 31 31 30 30 30 28 28 29 29 30 32 33 33 34 35 37 37 36 35 35 35 34 34 34 33 33 32 33 32 31 30 30 30 29 29 29 28 28 28
28 30 31 31 31 30 31 31 31 30 30 30 31 31 32 33 33 34 34 35 36 37 37 37 36 35 35 35 34 34 34 34 33 32 32 31 31 30 30 29 29 28 28
25 27 28 29 30 31 31 32 32 32 32 32 32 33 34 35 34 35 35 35 36 36 36 36 36 36 36 36 36 36 36 36 36 35 33 32 31 30 30 30 30 29 28
21 24 25 26 27 28 29 30 31 31 31 31 32 32 33 34 34 34 34 34 35 35 35 34 34 35 35 35 35 36 36 35 35 35 34 33 31 30 29 29 29 29 28
17 19 21 23 23 25 25 26 27 28 29 30 30 31 31 32 32 33 34 33 34 34 34 34 33 34 34 34 35 35 34 33 33 32 32 31 31 29 28 28 28 28 27
11 13 15 17 18 20 22 24 25 26 27 28 28 29 29 29 30 29 30 31 31 32 31 32 31 31 31 31 31 32 31 30 30 29 30 29 28 26 25 26 26 26 26
5 7 10 12 14 16 18 20 22 22 23 24 25 26 27 28 28 27 27 27 27 28 29 28 28 28 28 29 28 28 27 26 26 26 26 24 23 24 24 25 25 25 26
2 3 6 8 10 12 13 15 17 18 19 20 21 22 23 24 25 25 26 26 26 25 26 25 25 25 24 23 22 22 23 23 22 22 23 23 22 22 23 23 24 25 25
6 5 5 6 7 9 10 12 14 15 17 18 19 20 21 21 22 22 23 24 23 23 23 22 21 21 21 19 19 19 19 19 19 20 20 21 21 21 22 23 23 24 24
9 8 7 7 7 8 9 11 12 13 15 16 17 18 19 19 19 19 20 21 21 21 20 18 17 17 17 16 16 16 17 17 17 17 18 18 19 20 20 21 22 22 23
12 11 9 9 8 7 7 7 8 9 10 11 12 13 14 15 15 15 16 17 16 17 17 16 16 15 15 15 16 16 15 15 15 15 16 17 18 19 19 20 20 21 22
15 14 12 11 9 8 7 6 6 6 7 7 8 9 10 10 11 12 12 13 13 14 14 14 14 14 14 14 14 14 14 14 14 15 15 16 16 16 17 17 18 19 19
16 16 14 13 12 9 7 6 5 5 4 5 5 6 7 8 9 10 11 11 12 12 12 13 13 13 13 13 13 12 12 13 13 13 12 13 13 14 15 15 16 16 16
Wind_Direction
251 252 251 248 246 245 244 242 239 240 241 238 235 235 236 235 232 227 225 223 222 222 220 219 222 225 227 229 232 232 234 234 231 231 235 239 243 248 250 251 254 257 257
249 249 249 248 247 246 246 245 242 241 241 240 236 235 237 239 239 234 232 232 230 229 229 227 226 227 228 230 233 235 238 241 241 241 244 247 250 252 254 256 258 259 259
248 248 247 248 248 249 248 247 246 244 243 242 240 238 238 238 240 239 237 237 236 235 234 233 232 232 233 234 236 237 239 242 245 247 249 251 254 256 258 260 262 263 263
246 247 246 246 247 248 249 249 248 247 246 244 242 241 241 241 241 241 240 240 240 239 237 236 236 237 237 239 240 241 242 243 245 249 252 253 255 257 260 263 265 266 267
246 246 245 244 246 248 249 249 249 249 249 247 245 244 244 243 243 242 241 241 242 241 239 238 237 237 239 241 242 244 245 246 247 249 252 255 257 259 261 263 265 267 268
249 247 245 244 246 249 250 250 251 251 250 249 249 247 247 245 244 244 244 243 242 242 240 239 239 240 241 242 243 245 247 249 250 252 254 256 258 259 260 262 265 267 268
253 252 249 247 249 250 251 251 251 252 251 251 251 250 249 248 247 246 246 245 244 243 242 241 241 242 243 244 245 247 248 250 252 254 255 257 258 259 260 262 265 267 268
256 256 254 252 253 253 254 252 252 253 251 250 249 250 250 249 248 248 247 247 246 246 245 244 243 244 246 246 247 248 250 250 251 253 254 256 257 259 260 262 264 266 267
255 256 256 257 257 258 256 253 253 253 252 252 251 250 250 250 249 250 251 250 248 247 247 248 248 248 248 248 249 250 251 252 252 252 254 257 258 259 260 262 264 265 266
259 257 257 258 257 257 255 254 254 253 254 253 253 250 249 250 250 251 252 252 251 251 250 249 250 250 250 251 252 252 253 253 253 254 255 257 258 259 260 262 264 265 266
258 258 258 257 255 254 254 256 254 253 252 253 251 250 250 249 249 249 250 251 253 253 252 251 251 252 252 253 255 254 254 255 255 256 257 258 259 260 262 263 264 266 266
254 256 258 257 256 255 255 256 255 252 252 254 252 250 251 249 249 249 249 250 252 253 253 253 253 254 254 255 256 255 255 255 255 256 258 259 260 262 263 264 265 266 267
249 250 252 253 253 254 255 253 253 253 252 252 252 252 251 249 250 250 248 248 251 253 253 254 255 255 255 256 256 255 255 254 255 256 258 260 261 262 264 265 266 267 267
243 244 246 248 249 251 251 251 252 254 253 252 253 253 253 251 253 253 250 248 249 252 253 255 256 256 256 255 254 254 255 254 255 256 258 260 262 263 264 266 267 267 267
240 241 243 244 247 249 250 251 254 255 254 253 254 254 253 252 253 253 253 251 250 251 253 254 256 257 257 256 255 255 255 254 255 255 257 259 262 263 265 266 267 267 267
239 239 240 243 247 250 251 252 253 253 253 255 255 255 253 253 254 254 252 252 251 250 251 253 255 257 257 257 255 255 256 256 255 255 255 258 260 262 263 265 266 267 267
240 241 243 245 248 249 251 251 252 253 254 255 256 256 255 254 255 255 253 251 250 251 252 253 254 255 256 256 255 255 256 256 256 256 254 256 258 259 261 264 266 266 268
245 245 245 247 248 249 250 250 252 253 253 254 255 254 254 253 253 253 252 252 251 252 252 252 253 253 254 254 254 254 255 256 256 255 254 255 256 258 260 262 264 266 268
246 245 245 247 249 250 251 251 251 253 253 254 255 255 253 252 251 252 251 249 248 249 250 250 251 251 251 252 254 256 257 258 256 255 254 255 255 257 260 263 265 267 270
245 247 252 254 254 254 254 253 253 252 252 251 252 252 250 248 248 248 248 246 247 248 246 246 247 249 252 253 253 254 254 254 254 254 254 253 255 258 262 265 267 269 271
318 280 275 267 262 258 257 256 254 252 249 249 249 247 246 245 245 245 246 246 246 247 244 245 246 248 249 249 249 250 250 250 252 253 254 253 256 260 264 266 269 270 273
7 344 325 303 284 275 268 262 259 253 250 249 249 247 245 245 244 244 243 242 241 241 240 240 241 242 243 244 245 245 246 247 250 252 255 257 260 263 267 270 271 273 275
18 7 353 337 318 299 283 271 264 258 254 250 250 250 245 241 238 238 238 238 237 235 235 237 238 238 239 240 242 243 245 249 252 256 257 261 264 266 269 273 275 276 278
21 13 3 352 338 321 303 289 276 266 258 253 250 248 244 244 240 236 236 234 233 230 229 229 231 234 237 240 243 244 246 249 253 256 260 264 267 269 271 275 278 279 280
20 16 11 4 353 340 323 309 290 279 268 251 247 245 239 234 232 229 227 225 227 225 225 228 230 233 235 235 238 242 245 251 255 258 262 266 269 272 274 277 280 282 283
22 18 15 11 6 358 342 325 310 296 283 267 254 242 233 226 221 217 216 216 220 221 221 223 225 228 231 232 235 239 244 249 253 257 262 267 271 274 278 281 283 286 288
Height
5903 5904 5904 5904 5904 5905 5905 5906 5906 5906 5906 5907 5907 5908 5908 5909 5909 5909 5910 5910 5910 5911 5911 5912 5912 5912 5913 5914 5914 5915 5915 5915 5916 5916 5916 5917 5917 5917 5918 5918 5919 5919 5919
5898 5899 5900 5900 5901 5901 5902 5902 5903 5903 5904 5904 5905 5906 5906 5907 5907 5908 5908 5909 5909 5909 5910 5910 5911 5911 5912 5912 5913 5913 5914 5914 5915 5915 5915 5915 5916 5916 5916 5916 5917 5917 5917
5893 5894 5895 5895 5896 5897 5898 5898 5899 5900 5900 5901 5902 5903 5903 5904 5905 5905 5906 5907 5907 5908 5908 5909 5909 5909 5910 5910 5911 5912 5912 5912 5913 5913 5913 5914 5914 5914 5914 5914 5914 5915 5915
5886 5887 5889 5890 5891 5892 5893 5894 5895 5896 5897 5898 5898 5899 5900 5901 5902 5903 5903 5904 5905 5905 5906 5906 5907 5907 5908 5908 5909 5909 5910 5910 5910 5911 5911 5911 5911 5911 5912 5912 5912 5912 5912
5879 5880 5882 5883 5885 5886 5887 5889 5890 5891 5892 5893 5894 5896 5896 5897 5898 5899 5900 5901 5901 5902 5903 5903 5904 5905 5905 5906 5906 5907 5907 5907 5908 5908 5908 5908 5908 5908 5908 5908 5909 5909 5909
5872 5873 5874 5876 5878 5880 5881 5883 5884 5885 5887 5888 5889 5891 5892 5893 5894 5895 5896 5897 5897 5898 5899 5900 5901 5901 5902 5902 5903 5903 5904 5904 5904 5905 5905 5905 5904 5904 5905 5905 5904 5904 5904
5865 5867 5868 5870 5871 5873 5874 5876 5878 5879 5880 5882 5884 5885 5886 5888 5889 5890 5891 5892 5893 5894 5895 5896 5896 5897 5898 5899 5899 5900 5900 5900 5901 5901 5901 5901 5901 5900 5900 5900 5900 5900 5900
5858 5860 5862 5863 5864 5866 5868 5869 5871 5872 5874 5876 5878 5879 5880 5883 5883 5884 5886 5887 5888 5889 5890 5891 5892 5893 5893 5894 5895 5895 5896 5896 5896 5897 5897 5897 5896 5896 5896 5896 5896 5895 5895
5850 5852 5854 5857 5858 5860 5861 5862 5864 5865 5867 5868 5871 5873 5874 5876 5877 5879 5880 5881 5882 5883 5884 5885 5886 5887 5888 5889 5890 5891 5891 5891 5891 5892 5892 5892 5892 5892 5891 5891 5891 5890 5890
5841 5844 5846 5849 5850 5852 5853 5855 5856 5858 5860 5861 5863 5865 5867 5869 5871 5872 5873 5875 5876 5877 5878 5879 5880 5881 5882 5883 5884 5885 5885 5886 5886 5886 5887 5887 5887 5886 5886 5886 5885 5885 5885
5832 5835 5838 5840 5842 5844 5846 5848 5849 5851 5853 5854 5856 5858 5860 5861 5863 5864 5866 5868 5869 5870 5871 5872 5873 5874 5875 5877 5878 5879 5879 5880 5880 5881 5881 5881 5881 5881 5880 5880 5880 5879 5879
5823 5827 5829 5831 5834 5836 5839 5840 5842 5843 5845 5847 5848 5850 5852 5853 5855 5856 5858 5859 5861 5862 5864 5865 5866 5867 5868 5869 5871 5872 5873 5873 5874 5874 5875 5875 5875 5875 5875 5874 5874 5873 5873
5815 5818 5821 5823 5826 5828 5830 5831 5833 5836 5837 5839 5840 5842 5844 5846 5847 5848 5850 5851 5853 5854 5856 5857 5858 5859 5860 5861 5863 5864 5865 5866 5867 5867 5868 5868 5868 5868 5868 5868 5867 5867 5866
5806 5809 5812 5815 5818 5820 5822 5823 5826 5827 5829 5831 5832 5834 5835 5837 5838 5839 5841 5843 5844 5846 5847 5848 5849 5850 5851 5853 5854 5856 5857 5858 5859 5860 5860 5861 5861 5861 5861 5861 5860 5860 5859
5798 5801 5804 5807 5809 5812 5814 5816 5818 5819 5821 5823 5824 5825 5827 5828 5829 5831 5832 5833 5835 5837 5838 5839 5841 5842 5843 5844 5846 5847 5848 5850 5851 5852 5853 5853 5853 5854 5854 5853 5853 5853 5852
5792 5795 5797 5800 5802 5804 5806 5808 5810 5811 5813 5814 5815 5817 5818 5819 5820 5822 5823 5824 5825 5827 5829 5830 5832 5833 5834 5835 5837 5838 5840 5841 5842 5843 5844 5845 5845 5846 5846 5846 5846 5845 5845
5787 5789 5791 5793 5795 5797 5798 5800 5801 5803 5804 5805 5806 5807 5808 5810 5811 5812 5813 5815 5816 5818 5820 5821 5822 5824 5825 5826 5828 5829 5831 5832 5833 5835 5836 5836 5837 5838 5838 5838 5838 5838 5837
5783 5784 5786 5787 5789 5790 5791 5792 5794 5795 5796 5797 5797 5798 5799 5801 5802 5803 5805 5806 5808 5809 5811 5812 5813 5815 5816 5818 5819 5821 5822 5823 5825 5826 5827 5828 5829 5830 5830 5830 5830 5830 5830
5779 5780 5781 5782 5783 5783 5784 5785 5786 5787 5788 5788 5789 5790 5791 5793 5794 5795 5796 5798 5799 5801 5803 5804 5805 5807 5808 5810 5811 5813 5814 5816 5817 5819 5820 5821 5822 5823 5823 5823 5823 5823 5823
5777 5778 5778 5778 5778 5778 5778 5779 5779 5780 5781 5781 5782 5782 5784 5785 5786 5788 5789 5790 5791 5793 5795 5796 5798 5799 5801 5802 5804 5806 5807 5809 5810 5812 5813 5814 5815 5816 5816 5817 5817 5816 5816
5776 5776 5775 5775 5774 5774 5773 5773 5773 5774 5774 5774 5775 5776 5777 5778 5779 5780 5782 5783 5784 5786 5787 5789 5791 5792 5794 5796 5798 5799 5801 5803 5804 5806 5807 5808 5809 5810 5810 5810 5810 5810 5809
5776 5774 5773 5772 5770 5769 5769 5768 5768 5768 5768 5768 5769 5769 5770 5771 5772 5774 5775 5777 5778 5780 5781 5783 5785 5787 5789 5791 5793 5794 5796 5798 5800 5802 5802 5803 5804 5804 5804 5804 5804 5804 5803
5775 5773 5771 5769 5767 5766 5765 5764 5763 5762 5762 5763 5763 5764 5764 5765 5767 5768 5769 5771 5773 5775 5777 5778 5780 5782 5785 5786 5788 5790 5792 5794 5795 5796 5797 5798 5799 5799 5799 5798 5798 5798 5797
5775 5772 5770 5767 5765 5763 5761 5760 5759 5758 5757 5758 5758 5758 5759 5760 5761 5762 5764 5766 5768 5770 5772 5775 5777 5779 5781 5783 5785 5787 5788 5790 5791 5792 5793 5794 5794 5794 5794 5793 5793 5792 5791
5775 5772 5769 5766 5763 5761 5759 5757 5756 5755 5754 5754 5754 5754 5755 5756 5758 5759 5761 5762 5764 5766 5769 5771 5773 5776 5778 5780 5782 5784 5785 5787 5788 5789 5789 5790 5790 5790 5789 5789 5787 5786 5785
5776 5772 5769 5765 5762 5759 5757 5755 5753 5752 5751 5751 5751 5752 5752 5753 5755 5756 5758 5760 5762 5764 5766 5768 5771 5773 5775 5777 5779 5781 5782 5783 5784 5785 5786 5786 5786 5786 5785 5784 5783 5781 5780